Regional Weather Roundup
Issued by NWS

Home | Current Version | Previous Version | Graphics & Text | Print | Product List | Glossary On
Versions: 1 2 3 4 5 6 7 8 9 10 11 12 13 14 15 16 17 18 19 20 21 22 23 24 25 26 27 28 29 30 31 32 33 34 35 36 37 38 39 40 41 42 43 44 45 46 47 48 49 50
000
ASUS43 KOAX 251602
RWRNE

WEATHER ROUNDUP FOR NEBRASKA
NATIONAL WEATHER SERVICE OMAHA NE
1100 AM CDT FRI JUL 25 2014

NOTES: SATELLITE DATA IS BEING USED TO AUGMENT CLOUD COVER ABOVE
       12000 FEET.
       "FAIR" INDICATES FEW OR NO CLOUDS BELOW 12,000 FEET WITH NO
       SIGNIFICANT WEATHER AND/OR OBSTRUCTIONS TO VISIBILITY.

  * THESE STATIONS DO NOT REPORT WEATHER SUCH AS RAIN...SNOW OR FOG.

NEZ001>004-019>022-054>056-251700-
NEBRASKA PANHANDLE

CITY           SKY/WX    TMP DP  RH WIND       PRES   REMARKS
SCOTTSBLUFF    PTSUNNY   79  44  28 NE10      30.03F
ALLIANCE       MOSUNNY   76  45  33 N17G25    30.03F
CHADRON        SUNNY     78  31  17 NE14      30.01F
KIMBALL        SUNNY     75  58  55 NE12      30.07S
SIDNEY         MOSUNNY   78  53  41 N14       30.06R
$$

NEZ057>060-069>072-079>082-251700-
SOUTHWEST NEBRASKA

CITY           SKY/WX    TMP DP  RH WIND       PRES   REMARKS
NORTH PLATTE   SUNNY     81  62  52 N13       29.89S
IMPERIAL       MOSUNNY   81  62  52 NW18      29.95R
LEXINGTON      MOSUNNY   84  66  54 N10       29.85R
MCCOOK         PTSUNNY   84  61  45 N10       29.87R
OGALLALA       MOSUNNY   79  57  46 NE9       29.95S
$$

NEZ005>010-023>029-035>040-094-251700-
NORTH CENTRAL NEBRASKA

CITY           SKY/WX    TMP DP  RH WIND       PRES   REMARKS
VALENTINE      MOSUNNY   76  64  66 N18       29.89F
AINSWORTH      SUNNY     77  66  70 NW14      29.87S
BROKEN BOW     SUNNY     81  67  62 N18G25    29.85R
O`NEILL        MOSUNNY   83  67  59 NW9       29.80R
ORD            SUNNY     82  65  56 N17       29.80R
$$

NEZ041-046>049-061>064-073>077-083>087-251700-
SOUTH CENTRAL NEBRASKA

CITY           SKY/WX    TMP DP  RH WIND       PRES   REMARKS
GRAND ISLAND   SUNNY     88  66  48 W12       29.78F HX  90
AURORA         SUNNY     86  70  59 W9        29.77S HX  90
HASTINGS       SUNNY     87  63  44 SW9       29.80R
HEBRON         SUNNY     88  65  46 SW15G24   29.78S HX  90
HOLDREGE       MOSUNNY   85  63  47 NW3       29.83R
KEARNEY *      SUNNY     88  63  42 NW7       29.82S
YORK           SUNNY     86  72  62 W13       29.77S HX  92
$$

NEZ011>018-030>034-042>045-251700-
NORTHEAST NEBRASKA

CITY           SKY/WX    TMP DP  RH WIND       PRES   REMARKS
NORFOLK        SUNNY     83  71  67 S9        29.75R
ALBION         MOSUNNY   84  69  60 W5        29.76F
BLAIR          SUNNY     78  68  69 SE10G16   29.78S
COLUMBUS *     SUNNY     86  72  62 SW10      29.74F HX  92
FREMONT        SUNNY     82  71  68 SE9       29.77S
WAYNE          CLOUDY    81  72  74 SE15      29.76R
$$

NEZ050>053-065>068-078-088>093-251700-
SOUTHEAST NEBRASKA

CITY           SKY/WX    TMP DP  RH WIND       PRES   REMARKS
LINCOLN        SUNNY     90  69  50 SW13      29.76F HX  94
OMAHA EPPLEY   SUNNY     80  67  64 SE15      29.78F
BEATRICE       MOSUNNY   89  72  57 SW10G20   29.78S HX  95
FALLS CITY     SUNNY     89  71  55 SW13      29.80S HX  95
NEBRASKA CITY  SUNNY     82  72  70 SE8       29.79F
PLATTSMOUTH    SUNNY     82  70  66 SE10      29.78F
$$

NEZ044-045-051>053-067-251700-
OMAHA AREA

CITY           SKY/WX    TMP DP  RH WIND       PRES   REMARKS
OMAHA EPPLEY   SUNNY     80  67  64 SE15      29.78F
BLAIR          SUNNY     78  68  69 SE10G16   29.78S
FREMONT        SUNNY     82  71  68 SE9       29.77S
MILLARD        SUNNY     81  71  70 E10       29.77S
OFFUTT AFB     SUNNY     82  73  75 E13       29.78F
PLATTSMOUTH    SUNNY     82  70  66 SE10      29.78F
WAHOO          FAIR      83  73  71 SE9       29.75F
$$


USA.gov is the U.S. government's official web portal to all federal, state and local government web resources and services.